FW7026 Weather Reports


Display with metric or nautical units.
time (UTC)temp
F
wind
direction
speed
MPH
gust
MPH
rain 1hr
in
rain 24hr
in
rain mn
in
humidity
%
barometer
mb
20260507093514 41 207 0.0 0.0 0.00 0.40 0.40 93 1000.4
20260507093012 41 220 0.0 0.0 0.07 0.40 0.40 93 1000.4
20260507092508 41 14 0.0 0.0 0.00 0.39 0.39 93 1000.4
20260507092005 41 168 0.0 0.0 0.00 0.39 0.39 93 1000.4
20260507091502 41 189 0.0 0.0 0.07 0.39 0.39 93 1000.4
20260507090958 41 291 0.0 0.0 0.07 0.38 0.38 93 1000.4
20260507090454 41 174 0.0 0.0 0.07 0.38 0.38 93 1000.4
20260507085950 41 184 0.0 0.0 0.00 0.37 0.37 93 1000.4
20260507085448 41 284 0.0 0.0 0.00 0.37 0.37 93 1000.4
20260507084944 41 212 0.0 0.0 0.07 0.37 0.37 93 1000.4
20260507084441 41 271 0.0 0.0 0.07 0.37 0.37 93 1000.4
20260507083938 41 234 0.0 0.0 0.00 0.35 0.35 93 1000.1
20260507083435 41 213 0.0 0.0 0.00 0.35 0.35 93 1000.4
20260507082931 41 217 0.0 0.0 0.00 0.35 0.35 93 1000.4
20260507082427 42 324 0.0 0.0 0.07 0.35 0.35 93 1000.4
20260507081924 42 170 0.0 0.0 0.07 0.35 0.35 93 1000.4
20260507081420 42 146 0.0 0.0 0.07 0.34 0.34 93 1000.4
20260507080917 42 190 0.0 0.0 0.00 0.34 0.34 93 1000.4
20260507080413 42 195 0.0 0.0 0.00 0.33 0.33 93 1000.4
20260507075909 42 259 0.0 0.0 0.00 0.33 0.33 93 1000.1
20260507075405 42 307 0.0 5.0 0.00 0.33 0.33 93 1000.1
20260507074901 42 182 0.0 0.0 0.00 0.33 0.33 93 1000.1
20260507074358 42 142 0.0 0.0 0.00 0.33 0.33 93 1000.1
20260507073856 42 235 0.0 0.0 0.00 0.33 0.33 93 1000.1
20260507073352 42 182 0.0 0.0 0.00 0.33 0.33 93 1000.1
20260507072849 42 184 0.0 0.0 0.00 0.33 0.33 93 1000.1
20260507072347 42 256 0.0 0.0 0.07 0.33 0.33 93 1000.1
20260507071844 42 143 0.0 0.0 0.07 0.33 0.33 93 1000.1
20260507071342 42 196 0.0 0.0 0.07 0.32 0.32 93 1000.1
20260507070837 42 222 0.0 0.0 0.07 0.32 0.32 93 1000.4
20260507070335 42 15 0.0 0.0 0.07 0.31 0.31 93 1000.4
20260507065832 42 163 0.0 0.0 0.07 0.30 0.30 93 1000.4
20260507065328 42 207 0.0 0.0 0.14 0.30 0.30 93 1000.4
20260507064826 42 190 0.0 0.0 0.07 0.28 0.28 93 1000.4
20260507064324 42 180 0.0 0.0 0.00 0.27 0.27 93 1000.4
20260507063821 42 195 0.0 0.0 0.07 0.27 0.27 93 1000.4
20260507063318 42 182 0.0 0.0 0.00 0.26 0.26 93 1000.1
20260507062815 42 287 0.0 0.0 0.07 0.26 0.26 93 1000.4
20260507062312 42 207 0.0 0.0 0.07 0.25 0.25 93 1000.4
20260507061810 43 198 0.0 0.0 0.14 0.25 0.25 93 1000.4
20260507061308 43 210 0.0 0.0 0.14 0.24 0.24 93 1000.4
20260507060806 43 40 0.0 0.0 0.21 0.22 0.22 93 1000.4
20260507060302 43 153 0.0 2.0 0.21 0.20 0.20 93 1000.4
20260507055759 43 155 0.0 0.0 0.21 0.19 0.19 93 1000.4
20260507055254 43 243 0.0 0.0 0.14 0.17 0.17 93 1000.9
20260507054750 43 215 0.0 0.0 0.07 0.15 0.15 93 1000.9
20260507054247 44 256 0.0 0.0 0.07 0.14 0.14 93 1000.9
20260507053744 44 156 0.0 0.0 0.07 0.13 0.13 93 1000.9
20260507053242 44 237 0.0 0.0 0.14 0.13 0.13 93 1001.2
20260507052741 44 242 0.0 0.0 0.07 0.12 0.12 93 1000.9
20260507052237 44 266 0.0 0.0 0.07 0.11 0.11 93 1000.9
20260507051735 44 23 0.0 0.0 0.07 0.11 0.11 93 1000.9
20260507051231 44 107 0.0 0.0 0.07 0.09 0.09 93 1000.9
20260507050728 44 14 0.0 2.0 0.07 0.09 0.09 93 1000.9
20260507050225 44 307 0.0 2.0 0.07 0.08 0.08 93 1001.2
20260507045722 44 246 0.0 0.0 0.07 0.08 0.08 93 1001.2
20260507045218 44 204 0.0 0.0 0.00 0.07 0.07 93 1001.2
20260507044716 44 236 0.0 0.0 0.07 0.07 0.07 93 1000.9
20260507044212 44 287 0.0 2.0 0.07 0.06 0.06 93 1000.9
20260507043708 44 155 0.0 0.0 0.07 0.06 0.06 93 1001.2
20260507043205 45 247 0.0 0.0 0.07 0.05 0.05 93 1001.2
20260507042702 45 45 0.0 2.0 0.07 0.04 0.04 93 1001.2
20260507042156 45 294 0.0 0.0 0.14 0.04 0.04 93 1001.2
20260507041654 45 192 0.0 0.0 0.07 0.02 0.02 93 1001.6
20260507041150 45 116 0.0 0.0 0.07 0.01 0.01 93 1001.6
20260507040648 45 196 0.0 0.0 0.07 0.01 0.01 93 1001.6
20260507040144 45 191 0.0 0.0 0.07 1.10 1.10 93 1001.6
20260507035640 45 335 0.0 0.0 0.07 1.10 1.10 93 1001.6
20260507035136 45 171 0.0 0.0 0.00 1.09 1.09 93 1001.2
20260507034633 45 166 0.0 0.0 0.00 1.09 1.09 93 1001.6
20260507034130 45 3 0.0 0.0 0.00 1.09 1.09 93 1001.2
20260507033629 45 345 0.0 0.0 0.00 1.09 1.09 93 1001.2
20260507033126 45 355 0.0 2.0 0.00 1.09 1.09 93 1001.6
20260507032623 45 163 0.0 0.0 0.00 1.09 1.09 93 1001.6
20260507032119 45 15 0.0 0.0 0.00 1.09 1.09 93 1001.6
20260507031616 45 5 0.0 0.0 0.00 1.09 1.09 93 1001.6
20260507031112 45 330 0.0 0.0 0.00 1.09 1.09 93 1001.6
20260507030609 45 185 0.0 0.0 0.00 1.09 1.09 93 1001.6
20260507030107 45 30 0.0 0.0 0.00 1.09 1.09 93 1001.6
20260507025604 45 57 0.0 0.0 0.00 1.09 1.09 93 1001.6
20260507025101 45 16 0.0 0.0 0.00 1.09 1.09 93 1001.6
20260507024559 45 272 0.0 0.0 0.00 1.09 1.09 93 1001.9
20260507024056 45 7 0.0 0.0 0.07 1.09 1.09 93 1002.2
20260507023551 45 7 0.0 0.0 0.07 1.09 1.09 93 1002.2
20260507023049 45 132 0.0 0.0 0.00 1.07 1.07 93 1002.6
20260507022546 45 213 0.0 0.0 0.00 1.07 1.07 93 1002.6
20260507022041 45 15 0.0 0.0 0.00 1.07 1.07 93 1002.6
20260507021537 45 344 0.0 0.0 0.07 1.07 1.07 93 1002.6
20260507021034 45 354 0.0 0.0 0.14 1.07 1.07 93 1002.6
20260507020531 45 203 0.0 0.0 0.07 1.06 1.06 93 1002.6
20260507020027 45 46 0.0 0.0 0.07 1.05 1.05 93 1002.6
20260507015526 45 356 0.0 0.0 0.07 1.05 1.05 93 1002.9
20260507015023 45 82 0.0 0.0 0.00 1.04 1.04 93 1002.9
20260507014520 45 185 0.0 0.0 0.00 1.04 1.04 93 1003.2
20260507014015 45 299 0.0 0.0 0.07 1.04 1.04 93 1003.2
20260507013512 45 69 0.0 2.0 0.07 1.04 1.04 93 1003.2
20260507013010 45 255 0.0 0.0 0.00 1.03 1.03 93 1003.2
20260507012507 45 188 0.0 0.0 0.00 1.03 1.03 93 1003.2
20260507012003 45 353 0.0 0.0 0.00 1.03 1.03 93 1003.2
20260507011500 45 308 0.0 0.0 0.00 1.03 1.03 93 1003.2
20260507010956 46 353 0.0 0.0 0.00 1.03 1.03 93 1003.2
20260507010450 46 4 0.0 0.0 0.00 1.03 1.03 93 1003.2
20260507005947 46 307 0.0 0.0 0.07 1.03 1.03 93 1003.2
20260507005445 46 189 0.0 2.0 0.07 1.03 1.03 93 1003.2
20260507004941 46 224 0.0 0.0 0.00 1.02 1.02 93 1003.6
20260507004438 46 255 0.0 0.0 0.00 1.02 1.02 93 1003.6
20260507003936 46 198 0.0 0.0 0.00 1.02 1.02 93 1003.6
20260507003431 46 212 0.0 0.0 0.00 1.02 1.02 93 1003.6
20260507002926 46 116 0.0 0.0 0.00 1.02 1.02 93 1003.6
20260507002422 46 348 0.0 0.0 0.00 1.02 1.02 93 1003.6
20260507001920 46 293 0.0 0.0 0.00 1.02 1.02 93 1003.2
20260507001416 46 327 0.0 0.0 0.00 1.02 1.02 93 1003.2
20260507000914 46 11 0.0 0.0 0.07 1.02 1.02 93 1003.2
20260507000409 46 215 0.0 0.0 0.07 1.02 1.02 93 1003.6
20260506235905 46 2 0.0 0.0 0.00 1.00 1.00 93 1003.6
20260506235403 46 199 0.0 0.0 0.00 1.00 1.00 93 1003.6
20260506234858 46 220 0.0 0.0 0.00 1.00 1.00 93 1003.6
20260506234356 46 2 0.0 0.0 0.00 1.00 1.00 93 1003.2
20260506233853 46 185 0.0 0.0 0.07 1.00 1.00 93 1003.2
20260506233349 46 36 0.0 0.0 0.00 1.00 1.00 93 1003.2
20260506232846 46 230 0.0 0.0 0.00 0.99 0.99 93 1003.2
20260506232342 46 132 0.0 0.0 0.00 0.99 0.99 93 1003.2
20260506231838 46 126 0.0 0.0 0.00 0.99 0.99 93 1003.2
20260506231336 46 155 0.0 0.0 0.07 0.99 0.99 93 1003.2
20260506230833 46 274 0.0 0.0 0.07 0.99 0.99 93 1003.6
20260506230330 46 110 0.0 0.0 0.07 0.98 0.98 93 1003.2
20260506225826 46 34 0.0 0.0 0.14 0.98 0.98 93 1003.6
20260506225324 46 227 0.0 0.0 0.07 0.97 0.97 93 1003.6
20260506224821 46 359 0.0 0.0 0.07 0.96 0.96 93 1003.6
20260506224318 46 103 0.0 0.0 0.14 0.96 0.96 93 1003.6
20260506223814 46 73 0.0 0.0 0.07 0.94 0.94 93 1003.2
20260506223309 46 140 0.0 0.0 0.00 0.93 0.93 93 1003.6
20260506222807 46 309 0.0 0.0 0.14 0.93 0.93 93 1003.6
20260506222305 46 22 0.0 0.0 0.07 0.92 0.92 93 1003.6
20260506221800 46 112 0.0 0.0 0.07 0.91 0.91 93 1003.9
20260506221258 46 235 0.0 0.0 0.07 0.91 0.91 93 1003.9
20260506220755 46 247 0.0 0.0 0.00 0.90 0.90 93 1004.3
20260506220249 46 3 0.0 0.0 0.07 0.90 0.90 93 1003.9
20260506215747 46 222 0.0 0.0 0.07 0.90 0.90 93 1003.9
20260506215243 46 159 0.0 0.0 0.00 0.89 0.89 93 1004.3
20260506214739 46 192 0.0 0.0 0.07 0.89 0.89 93 1004.3
20260506214236 46 269 0.0 0.0 0.07 0.89 0.89 93 1004.3
20260506213735 46 289 0.0 0.0 0.07 0.87 0.87 93 1004.3
20260506213231 46 108 0.0 0.0 0.07 0.87 0.87 93 1004.3
20260506212729 46 324 0.0 0.0 0.07 0.86 0.86 93 1004.3
20260506212224 46 162 0.0 0.0 0.07 0.85 0.85 93 1004.3
20260506211719 46 169 0.0 0.0 0.14 0.85 0.85 93 1004.3
20260506211210 46 354 0.0 0.0 0.07 0.84 0.84 93 1004.3
20260506210708 46 216 0.0 0.0 0.07 0.83 0.83 93 1004.3
20260506210204 46 54 0.0 0.0 0.07 0.83 0.83 93 1004.3
20260506205701 46 219 0.0 0.0 0.07 0.81 0.81 93 1004.3
20260506205156 46 14 0.0 0.0 0.14 0.81 0.81 93 1004.3
20260506204654 46 4 0.0 0.0 0.07 0.80 0.80 93 1004.3
20260506204150 46 45 0.0 0.0 0.07 0.79 0.79 93 1004.3
20260506203649 46 168 0.0 0.0 0.07 0.79 0.79 93 1004.6
20260506203146 46 207 0.0 0.0 0.07 0.78 0.78 93 1004.3
20260506202644 46 3 0.0 0.0 0.14 0.78 0.78 93 1004.3
20260506202139 46 167 0.0 0.0 0.14 0.77 0.77 93 1004.3
20260506201636 46 9 0.0 0.0 0.14 0.76 0.76 93 1004.6
20260506201133 46 119 0.0 0.0 0.14 0.74 0.74 93 1004.3
20260506200629 46 135 0.0 0.0 0.14 0.73 0.73 93 1004.6
20260506200126 46 133 0.0 0.0 0.21 0.72 0.72 93 1004.6
20260506195623 46 217 0.0 0.0 0.14 0.70 0.70 93 1004.9
20260506195119 46 314 0.0 0.0 0.14 0.69 0.69 93 1004.9
20260506194617 47 99 0.0 0.0 0.07 0.67 0.67 93 1004.6
20260506194113 47 140 0.0 0.0 0.07 0.66 0.66 93 1004.3
20260506193611 46 81 0.0 0.0 0.07 0.66 0.66 93 1004.6
20260506193108 46 113 0.0 0.0 0.07 0.65 0.65 93 1004.3
20260506192605 46 201 0.0 0.0 0.07 0.64 0.64 92 1004.6
20260506192101 47 112 0.0 0.0 0.07 0.64 0.64 93 1004.9
20260506191557 46 15 0.0 0.0 0.07 0.64 0.64 92 1004.9
20260506191053 46 227 0.0 0.0 0.07 0.63 0.63 93 1005.7
20260506190551 46 48 0.0 0.0 0.14 0.63 0.63 92 1005.4
20260506190048 47 56 0.0 0.0 0.14 0.61 0.61 93 1005.4
20260506185545 46 188 0.0 0.0 0.07 0.60 0.60 92 1005.7
20260506185041 47 204 0.0 0.0 0.07 0.59 0.59 93 1005.4
20260506184539 46 206 0.0 0.0 0.07 0.59 0.59 92 1005.4
20260506184036 46 229 0.0 0.0 0.07 0.58 0.58 92 1004.9
20260506183532 47 203 0.0 0.0 0.07 0.58 0.58 92 1005.4
20260506183028 46 327 0.0 0.0 0.14 0.57 0.57 92 1005.7
20260506182526 47 154 0.0 0.0 0.07 0.54 0.54 92 1006.1
20260506182023 47 227 0.0 0.0 0.07 0.54 0.54 92 1006.1
20260506181521 47 147 0.0 0.0 0.07 0.53 0.53 92 1005.7
20260506181018 47 102 0.0 0.0 0.07 0.53 0.53 92 1005.4
20260506180514 46 166 0.0 0.0 0.07 0.52 0.52 92 1005.7
20260506180011 46 110 0.0 0.0 0.07 0.52 0.52 92 1005.7
20260506175507 46 114 0.0 0.0 0.14 0.52 0.52 92 1006.1
20260506175004 47 212 0.0 0.0 0.14 0.51 0.51 92 1006.4
20260506174503 46 68 0.0 0.0 0.14 0.50 0.50 92 1006.4
20260506173958 47 40 0.0 0.0 0.07 0.48 0.48 92 1006.4
20260506173456 47 177 0.0 0.0 0.07 0.47 0.47 92 1006.4
20260506172952 47 93 0.0 0.0 0.07 0.46 0.46 92 1006.4
20260506172450 47 173 0.0 0.0 0.14 0.46 0.46 92 1007.1
20260506171946 48 198 0.0 0.0 0.14 0.45 0.45 92 1006.7
20260506171443 47 223 0.0 0.0 0.07 0.44 0.44 92 1007.1
20260506170941 48 189 0.0 0.0 0.07 0.43 0.43 92 1007.1
20260506170438 47 190 0.0 0.0 0.14 0.43 0.43 92 1007.1
20260506165936 47 184 0.0 0.0 0.14 0.40 0.40 92 1007.4
20260506165434 47 190 0.0 0.0 0.14 0.40 0.40 92 1007.4
20260506164930 47 197 0.0 0.0 0.07 0.38 0.38 92 1007.4
20260506164426 47 186 0.0 0.0 0.21 0.37 0.37 92 1007.1
20260506163919 48 180 0.0 0.0 0.21 0.35 0.35 92 1007.1
20260506163414 48 226 0.0 0.0 0.14 0.34 0.34 92 1007.1
20260506162909 47 249 0.0 0.0 0.14 0.32 0.32 92 1007.1
20260506162407 48 174 0.0 0.0 0.07 0.31 0.31 92 1006.7
20260506161904 47 175 0.0 0.0 0.00 0.30 0.30 92 1006.7
20260506161402 48 4 0.0 0.0 0.00 0.30 0.30 92 1006.4
20260506160859 48 177 0.0 0.0 0.00 0.30 0.30 92 1006.7
20260506160356 47 18 0.0 0.0 0.07 0.30 0.30 92 1007.1
20260506155854 48 181 0.0 0.0 0.00 0.30 0.30 92 1007.1
20260506155350 48 223 0.0 0.0 0.00 0.28 0.28 92 1007.7
20260506153508 48 210 0.0 0.0 0.07 0.27 0.27 92 1008.1
20260506153005 48 200 0.0 0.0 0.00 0.26 0.26 92 1007.7
20260506152502 48 193 0.0 0.0 0.00 0.26 0.26 92 1007.4
20260506152000 48 194 0.0 0.0 0.00 0.26 0.26 92 1007.4
20260506151458 48 162 0.0 0.0 0.00 0.26 0.26 92 1007.4
20260506150955 48 193 0.0 0.0 0.00 0.26 0.26 92 1007.7
20260506150450 48 182 0.0 0.0 0.00 0.26 0.26 92 1007.4
20260506145948 48 189 0.0 0.0 0.00 0.26 0.26 92 1007.4
20260506145444 47 213 0.0 0.0 0.00 0.26 0.26 92 1007.7
20260506144942 47 228 0.0 0.0 0.00 0.26 0.26 92 1007.7
20260506144438 47 264 0.0 0.0 0.00 0.26 0.26 92 1007.7
20260506143937 47 206 0.0 0.0 0.00 0.26 0.26 92 1007.7
20260506143433 47 163 0.0 0.0 0.00 0.26 0.26 92 1007.7
20260506142932 48 160 0.0 0.0 0.00 0.26 0.26 92 1007.7
20260506142429 47 246 0.0 0.0 0.00 0.26 0.26 92 1007.7
20260506141927 47 214 0.0 0.0 0.00 0.26 0.26 92 1007.7
20260506141425 47 236 0.0 0.0 0.00 0.26 0.26 92 1008.1
20260506140923 48 195 0.0 0.0 0.00 0.26 0.26 92 1007.7
20260506140419 48 295 0.0 0.0 0.00 0.26 0.26 92 1007.7
20260506135916 48 222 0.0 0.0 0.00 0.26 0.26 92 1007.7
20260506135413 48 187 0.0 0.0 0.00 0.26 0.26 92 1007.7
20260506134909 47 170 0.0 0.0 0.00 0.26 0.26 92 1007.7
20260506134406 48 231 0.0 0.0 0.00 0.26 0.26 93 1008.1
20260506133903 48 207 0.0 0.0 0.00 0.26 0.26 93 1007.7
20260506133359 47 246 0.0 2.0 0.00 0.26 0.26 93 1008.1
20260506132856 47 240 0.0 2.0 0.00 0.26 0.26 93 1008.1
20260506132353 47 241 0.0 0.0 0.00 0.26 0.26 93 1007.7
20260506131851 48 238 0.0 5.0 0.00 0.26 0.26 93 1008.1
20260506131347 47 263 0.0 0.0 0.00 0.26 0.26 93 1007.7
20260506130845 48 254 0.0 0.0 0.00 0.26 0.26 93 1008.1
20260506130341 47 249 0.0 0.0 0.00 0.26 0.26 93 1007.4
20260506125839 47 146 0.0 0.0 0.00 0.26 0.26 93 1007.1
20260506125337 48 290 0.0 0.0 0.00 0.26 0.26 93 1007.4
20260506124835 47 220 0.0 0.0 0.00 0.26 0.26 93 1007.4
20260506124332 47 210 0.0 0.0 0.00 0.26 0.26 93 1007.4
20260506123830 47 219 0.0 0.0 0.00 0.26 0.26 93 1007.4
20260506123328 47 190 0.0 0.0 0.00 0.26 0.26 93 1007.1
20260506122825 47 228 0.0 0.0 0.00 0.26 0.26 93 1007.4
20260506122322 47 210 0.0 0.0 0.00 0.26 0.26 93 1007.1
20260506121820 47 232 0.0 0.0 0.00 0.26 0.26 93 1006.7
20260506121317 47 179 0.0 0.0 0.07 0.26 0.26 93 1007.1
20260506120814 47 201 0.0 0.0 0.07 0.26 0.26 93 1007.1
20260506120312 47 171 0.0 0.0 0.00 0.25 0.25 93 1007.4
20260506115809 47 204 0.0 0.0 0.00 0.25 0.25 93 1007.4
20260506115307 47 181 0.0 0.0 0.00 0.25 0.25 93 1007.1
20260506114804 47 176 0.0 0.0 0.00 0.25 0.25 93 1007.1
20260506114302 47 213 0.0 5.0 0.00 0.25 0.25 93 1007.4
20260506113800 47 219 0.0 0.0 0.00 0.25 0.25 93 1007.4
20260506113258 47 190 2.0 2.0 0.00 0.25 0.25 93 1007.1
20260506112754 47 162 0.0 0.0 0.07 0.25 0.25 93 1007.1
20260506112251 47 167 0.0 0.0 0.07 0.25 0.25 93 1007.1
20260506111749 47 107 0.0 0.0 0.00 0.24 0.24 92 1007.4
20260506111247 47 188 0.0 0.0 0.07 0.24 0.24 92 1007.4
20260506110743 47 183 0.0 0.0 0.07 0.24 0.24 93 1007.4
20260506110241 46 175 0.0 0.0 0.00 0.22 0.22 92 1007.4
20260506105737 46 197 0.0 0.0 0.00 0.22 0.22 92 1007.4
20260506105234 46 205 0.0 0.0 0.00 0.22 0.22 92 1007.1
20260506104732 46 216 0.0 0.0 0.00 0.22 0.22 92 1007.1
20260506104229 46 145 0.0 2.0 0.00 0.22 0.22 92 1007.4
20260506103727 46 194 0.0 0.0 0.00 0.22 0.22 92 1007.4
20260506103224 46 184 0.0 8.0 0.07 0.22 0.22 92 1007.4
20260506102721 46 212 0.0 0.0 0.07 0.22 0.22 92 1007.7
20260506102220 46 196 0.0 0.0 0.00 0.21 0.21 92 1007.4
20260506101716 46 174 0.0 0.0 0.00 0.21 0.21 92 1007.7
20260506101212 46 235 0.0 0.0 0.07 0.21 0.21 92 1007.4
20260506100711 46 204 0.0 0.0 0.00 0.21 0.21 92 1007.4
20260506100208 47 217 0.0 0.0 0.07 0.20 0.20 92 1007.1
20260506095707 47 191 0.0 0.0 0.07 0.20 0.20 92 1007.4
20260506095203 47 176 0.0 0.0 0.07 0.19 0.19 92 1007.1
20260506094700 47 140 0.0 0.0 0.07 0.19 0.19 92 1007.1
20260506094158 47 224 0.0 0.0 0.00 0.18 0.18 92 1007.4
20260506093657 47 259 0.0 0.0 0.00 0.18 0.18 92 1007.1